Flag for U.S.A. Weather past 2 weeks in Sarasota, Florida, U.S.A.

Now
63 °F

Clear.


Feels Like: 63 °F
Forecast: 63 / 80 °F
Wind: No wind

Location: Sarasota-Bradenton International Airport

Current Time: Apr 2, 2015 at 4:39:36 AM

Latest Report: Apr 2, 2015 at 3:53 AM


Visibility: 10 mi

Pressure: 30.12 "Hg

Humidity: 97%

Dew point: 62 °F

Location of SarasotaLocation

Historic Weather in Sarasota — Graph

°F

Sarasota temperature yesterday

Maximum temperature yesterday: 76 °F (at 12:53 PM)
Minimum temperature yesterday: 63 °F (at 4:53 AM)
Average temperature yesterday: 70 °F

Past Weeks' High & Low Weather Summary

 TemperatureHumidityPressure
High83 °F (Mar 26, 11:53 AM)100% (Mar 19, 3:53 AM)30.34 "Hg (Mar 19, 3:53 AM)
Low47 °F (Mar 30, 6:53 AM)29% (Mar 29, 4:53 PM)29.82 "Hg (Mar 27, 5:53 AM)
Average70 °F76%30.06 "Hg
* Reported Mar 18 2:00 AM — Apr 2 2:53 AM, Sarasota, Weather by CustomWeather, © 2015

Note: Actual official high and low records may vary slightly from our data, if they occured in-between our weather recording intervals... More about our weather records

Advertising

Sarasota weather history for previous 24 hours

 ConditionsComfort  
Time TempWeatherWind HumidityBarometerVisibility
2:53 AM
Thu, Apr 2
64 °FClear.3 mph97%30.12 "Hg10 mi
1:53 AM65 °FClear.5 mph94%30.13 "Hg10 mi
12:53 AM64 °FClear.No wind94%30.13 "Hg10 mi
11:53 PM
Wed, Apr 1
64 °FClear.No wind94%30.14 "Hg10 mi
10:53 PM67 °FClear.3 mph87%30.13 "Hg10 mi
9:53 PM67 °FClear.6 mph87%30.13 "Hg10 mi
8:53 PM69 °FClear.7 mph84%30.11 "Hg10 mi
7:53 PM71 °FSunny.9 mph76%30.09 "Hg10 mi
6:53 PM72 °FSunny.9 mph73%30.09 "Hg10 mi
5:53 PM74 °FSunny.10 mph69%30.08 "Hg10 mi
4:53 PM75 °FSunny.12 mph66%30.08 "Hg10 mi
3:53 PM75 °FSunny.12 mph66%30.09 "Hg10 mi
2:53 PM76 °FSunny.10 mph64%30.10 "Hg10 mi
1:53 PM76 °FSunny.12 mph62%30.12 "Hg10 mi
12:53 PM76 °FSunny.10 mph64%30.14 "Hg10 mi
11:53 AM75 °FSunny.9 mph66%30.16 "Hg10 mi
10:53 AM74 °FSunny.9 mph69%30.16 "Hg10 mi
9:53 AM72 °FSunny.9 mph73%30.14 "Hg10 mi
8:53 AM70 °FSunny.7 mph84%30.14 "Hg10 mi
7:53 AM68 °FClear.5 mph87%30.11 "Hg10 mi
6:53 AM67 °FClear.5 mph90%30.09 "Hg10 mi
5:53 AM66 °FClear.6 mph90%30.08 "Hg10 mi
4:53 AM63 °FClear.3 mph97%30.07 "Hg9 mi
Weather by CustomWeather, © 2015

See weather overviewHow to use our weather pages